| time (UTC) | temp F | wind direction | speed MPH | gust MPH | rain 1hr in | rain 24hr in | rain mn in | humidity % | barometer mb |
| 20260904095506 | 56 | 0 | 3.0 | 6.0 | 0.00 | 0.00 | 0.00 | 95 | 1019.1 |
| 20260904094957 | 56 | 0 | 4.0 | 6.0 | 0.00 | 0.00 | 0.00 | 95 | 1019.3 |
| 20260904094449 | 55 | 0 | 4.0 | 7.0 | 0.00 | 0.00 | 0.00 | 95 | 1019.2 |
| 20260904093940 | 55 | 0 | 3.0 | 7.0 | 0.00 | 0.00 | 0.00 | 95 | 1019.3 |
| 20260904093431 | 55 | 0 | 4.0 | 6.0 | 0.00 | 0.00 | 0.00 | 95 | 1019.5 |
| 20260904092922 | 55 | 0 | 4.0 | 6.0 | 0.00 | 0.00 | 0.00 | 95 | 1019.5 |
| 20260904092413 | 55 | 0 | 3.0 | 6.0 | 0.00 | 0.00 | 0.00 | 95 | 1019.7 |
| 20260904091904 | 55 | 0 | 4.0 | 8.0 | 0.00 | 0.00 | 0.00 | 95 | 1019.7 |
| 20260904091355 | 55 | 0 | 4.0 | 7.0 | 0.00 | 0.00 | 0.00 | 95 | 1019.6 |
| 20260904090846 | 55 | 0 | 4.0 | 7.0 | 0.00 | 0.00 | 0.00 | 95 | 1019.6 |
| 20260904090337 | 55 | 0 | 5.0 | 8.0 | 0.00 | 0.00 | 0.00 | 95 | 1019.7 |
| 20260904085829 | 55 | 0 | 5.0 | 9.0 | 0.00 | 0.00 | 0.00 | 94 | 1019.7 |
| 20260904085320 | 54 | 0 | 5.0 | 8.0 | 0.00 | 0.00 | 0.00 | 94 | 1019.8 |
| 20260904084811 | 54 | 0 | 4.0 | 7.0 | 0.00 | 0.00 | 0.00 | 94 | 1019.9 |
| 20260904084302 | 54 | 0 | 4.0 | 8.0 | 0.00 | 0.00 | 0.00 | 94 | 1020.0 |
| 20260904083753 | 54 | 0 | 3.0 | 5.0 | 0.00 | 0.00 | 0.00 | 94 | 1020.1 |
| 20260904082735 | 54 | 0 | 4.0 | 7.0 | 0.00 | 0.00 | 0.00 | 94 | 1020.1 |
| 20260904082227 | 54 | 0 | 4.0 | 5.0 | 0.00 | 0.00 | 0.00 | 94 | 1020.2 |
| 20260904081718 | 54 | 0 | 5.0 | 0.0 | 0.00 | 0.00 | 0.00 | 94 | 1020.1 |
| 20260904081209 | 54 | 0 | 4.0 | 10.0 | 0.00 | 0.00 | 0.00 | 94 | 1020.2 |
| 20260904080700 | 54 | 0 | 5.0 | 8.0 | 0.00 | 0.00 | 0.00 | 94 | 1020.4 |
| 20260904080151 | 54 | 0 | 4.0 | 7.0 | 0.00 | 0.00 | 0.00 | 94 | 1020.4 |
| 20260904075643 | 54 | 0 | 4.0 | 7.0 | 0.00 | 0.00 | 0.00 | 94 | 1020.3 |
| 20260904075133 | 54 | 0 | 3.0 | 6.0 | 0.00 | 0.00 | 0.00 | 94 | 1020.1 |
| 20260904074116 | 54 | 0 | 2.0 | 5.0 | 0.00 | 0.00 | 0.00 | 94 | 1020.2 |
| 20260904073607 | 54 | 0 | 3.0 | 7.0 | 0.00 | 0.00 | 0.00 | 94 | 1020.3 |
| 20260904073058 | 53 | 0 | 4.0 | 7.0 | 0.00 | 0.00 | 0.00 | 94 | 1020.4 |
| 20260904072549 | 53 | 0 | 3.0 | 5.0 | 0.00 | 0.00 | 0.00 | 93 | 1020.4 |
| 20260904072040 | 53 | 0 | 4.0 | 6.0 | 0.00 | 0.00 | 0.00 | 93 | 1020.4 |
| 20260904071532 | 53 | 0 | 4.0 | 8.0 | 0.00 | 0.00 | 0.00 | 93 | 1020.4 |
| 20260904071023 | 54 | 0 | 3.0 | 5.0 | 0.00 | 0.00 | 0.00 | 93 | 1020.5 |
| 20260904070005 | 54 | 0 | 2.0 | 4.0 | 0.00 | 0.00 | 0.00 | 93 | 1020.5 |
| 20260904065456 | 54 | 0 | 2.0 | 4.0 | 0.00 | 0.00 | 0.00 | 93 | 1020.6 |
| 20260904064947 | 54 | 0 | 4.0 | 6.0 | 0.00 | 0.00 | 0.00 | 93 | 1020.4 |
| 20260904064438 | 53 | 0 | 3.0 | 6.0 | 0.00 | 0.00 | 0.00 | 93 | 1020.3 |
| 20260904063930 | 53 | 0 | 2.0 | 4.0 | 0.00 | 0.00 | 0.00 | 93 | 1020.5 |
| 20260904063421 | 53 | 0 | 3.0 | 5.0 | 0.00 | 0.00 | 0.00 | 93 | 1020.5 |
| 20260904062912 | 53 | 0 | 3.0 | 4.0 | 0.00 | 0.00 | 0.00 | 93 | 1020.5 |
| 20260904062403 | 53 | 0 | 2.0 | 4.0 | 0.00 | 0.00 | 0.00 | 93 | 1020.4 |
| 20260904061854 | 53 | 0 | 3.0 | 4.0 | 0.00 | 0.00 | 0.00 | 93 | 1020.4 |
| 20260904061346 | 53 | 0 | 2.0 | 5.0 | 0.00 | 0.00 | 0.00 | 93 | 1020.6 |
| 20260904060837 | 53 | 0 | 2.0 | 5.0 | 0.00 | 0.00 | 0.00 | 93 | 1020.9 |
| 20260904055819 | 53 | 0 | 2.0 | 4.0 | 0.00 | 0.00 | 0.00 | 93 | 1020.6 |
| 20260904055310 | 53 | 0 | 3.0 | 5.0 | 0.00 | 0.00 | 0.00 | 93 | 1020.5 |
| 20260904054801 | 53 | 0 | 3.0 | 4.0 | 0.00 | 0.00 | 0.00 | 93 | 1020.4 |
| 20260904054330 | 53 | 0 | 3.0 | 6.0 | 0.00 | 0.00 | 0.00 | 93 | 1020.4 |
| 20260904054253 | 53 | 0 | 3.0 | 6.0 | 0.00 | 0.00 | 0.00 | 93 | 1020.4 |
| 20260904053744 | 53 | 0 | 3.0 | 4.0 | 0.00 | 0.00 | 0.00 | 93 | 1020.4 |
| 20260904052726 | 53 | 0 | 3.0 | 4.0 | 0.00 | 0.00 | 0.00 | 93 | 1020.4 |
| 20260904052217 | 53 | 0 | 3.0 | 5.0 | 0.00 | 0.00 | 0.00 | 93 | 1020.5 |
| 20260904051708 | 53 | 0 | 2.0 | 4.0 | 0.00 | 0.00 | 0.00 | 93 | 1020.7 |
| 20260904051200 | 53 | 0 | 3.0 | 4.0 | 0.00 | 0.00 | 0.00 | 93 | 1020.7 |
| 20260904050651 | 53 | 0 | 3.0 | 8.0 | 0.00 | 0.00 | 0.00 | 93 | 1020.6 |
| 20260904050142 | 53 | 0 | 3.0 | 4.0 | 0.00 | 0.00 | 0.00 | 93 | 1020.4 |
| 20260904045633 | 53 | 0 | 3.0 | 6.0 | 0.00 | 0.00 | 0.00 | 93 | 1020.2 |
| 20260904045124 | 53 | 0 | 4.0 | 8.0 | 0.00 | 0.00 | 0.00 | 93 | 1020.2 |
| 20260904044616 | 53 | 0 | 3.0 | 5.0 | 0.00 | 0.00 | 0.00 | 93 | 1020.4 |
| 20260904044107 | 53 | 0 | 3.0 | 5.0 | 0.00 | 0.00 | 0.00 | 93 | 1020.3 |
| 20260904043558 | 53 | 0 | 3.0 | 6.0 | 0.00 | 0.00 | 0.00 | 93 | 1020.2 |
| 20260904043049 | 53 | 0 | 4.0 | 7.0 | 0.00 | 0.00 | 0.00 | 93 | 1020.2 |
| 20260904042540 | 53 | 0 | 3.0 | 8.0 | 0.00 | 0.00 | 0.00 | 93 | 1020.3 |
| 20260904042032 | 53 | 0 | 4.0 | 8.0 | 0.00 | 0.00 | 0.00 | 93 | 1020.2 |
| 20260904041523 | 53 | 0 | 4.0 | 8.0 | 0.00 | 0.00 | 0.00 | 93 | 1020.3 |
| 20260904041014 | 53 | 0 | 3.0 | 6.0 | 0.00 | 0.00 | 0.00 | 93 | 1020.2 |
| 20260904040505 | 53 | 0 | 4.0 | 6.0 | 0.00 | 0.00 | 0.00 | 93 | 1020.3 |
| 20260904035957 | 53 | 0 | 4.0 | 6.0 | 0.00 | 0.00 | 0.00 | 93 | 1020.5 |
| 20260904035447 | 53 | 0 | 3.0 | 5.0 | 0.00 | 0.00 | 0.00 | 93 | 1020.5 |
| 20260904034939 | 53 | 0 | 4.0 | 7.0 | 0.00 | 0.00 | 0.00 | 93 | 1020.4 |
| 20260904034430 | 53 | 0 | 4.0 | 6.0 | 0.00 | 0.00 | 0.00 | 93 | 1020.4 |
| 20260904033921 | 53 | 0 | 4.0 | 6.0 | 0.00 | 0.00 | 0.00 | 93 | 1020.5 |
| 20260904033412 | 53 | 0 | 4.0 | 7.0 | 0.00 | 0.00 | 0.00 | 93 | 1020.5 |
| 20260904032903 | 53 | 0 | 4.0 | 5.0 | 0.00 | 0.00 | 0.00 | 92 | 1020.5 |
| 20260904032354 | 53 | 0 | 3.0 | 5.0 | 0.00 | 0.00 | 0.00 | 92 | 1020.5 |
| 20260904031846 | 53 | 0 | 3.0 | 6.0 | 0.00 | 0.00 | 0.00 | 92 | 1020.4 |
| 20260904031337 | 53 | 0 | 3.0 | 5.0 | 0.00 | 0.00 | 0.00 | 92 | 1020.5 |
| 20260904030828 | 52 | 0 | 3.0 | 6.0 | 0.00 | 0.00 | 0.00 | 92 | 1020.5 |
| 20260904030319 | 52 | 0 | 3.0 | 6.0 | 0.00 | 0.00 | 0.00 | 92 | 1020.5 |
| 20260904025305 | 52 | 0 | 4.0 | 6.0 | 0.00 | 0.00 | 0.00 | 92 | 1020.5 |
| 20260904024753 | 52 | 0 | 4.0 | 7.0 | 0.00 | 0.00 | 0.00 | 92 | 1020.7 |
| 20260904024244 | 52 | 0 | 3.0 | 5.0 | 0.00 | 0.00 | 0.00 | 92 | 1020.7 |
| 20260904023735 | 52 | 0 | 3.0 | 5.0 | 0.00 | 0.00 | 0.00 | 92 | 1020.8 |
| 20260904023226 | 52 | 0 | 3.0 | 5.0 | 0.00 | 0.00 | 0.00 | 92 | 1020.7 |
| 20260904022718 | 52 | 0 | 3.0 | 7.0 | 0.00 | 0.00 | 0.00 | 92 | 1020.8 |
| 20260904022209 | 52 | 0 | 3.0 | 7.0 | 0.00 | 0.00 | 0.00 | 92 | 1020.9 |
| 20260904021700 | 52 | 0 | 4.0 | 6.0 | 0.00 | 0.00 | 0.00 | 92 | 1020.8 |
| 20260904021151 | 52 | 0 | 4.0 | 6.0 | 0.00 | 0.00 | 0.00 | 92 | 1020.9 |
| 20260904020642 | 52 | 0 | 3.0 | 5.0 | 0.00 | 0.00 | 0.00 | 92 | 1020.8 |
| 20260904015625 | 52 | 0 | 4.0 | 6.0 | 0.00 | 0.00 | 0.00 | 92 | 1020.8 |
| 20260904015116 | 52 | 0 | 3.0 | 4.0 | 0.00 | 0.00 | 0.00 | 92 | 1020.8 |
| 20260904014607 | 52 | 0 | 3.0 | 6.0 | 0.00 | 0.00 | 0.00 | 92 | 1020.8 |
| 20260904014058 | 52 | 0 | 3.0 | 5.0 | 0.00 | 0.00 | 0.00 | 92 | 1020.7 |
| 20260904013549 | 52 | 0 | 3.0 | 6.0 | 0.00 | 0.00 | 0.00 | 92 | 1020.6 |
| 20260904013041 | 52 | 0 | 4.0 | 6.0 | 0.00 | 0.00 | 0.00 | 92 | 1020.5 |
| 20260904012532 | 52 | 0 | 4.0 | 6.0 | 0.00 | 0.00 | 0.00 | 92 | 1020.6 |
| 20260904012023 | 52 | 0 | 3.0 | 5.0 | 0.00 | 0.00 | 0.00 | 92 | 1020.7 |
| 20260904011514 | 52 | 0 | 3.0 | 5.0 | 0.00 | 0.00 | 0.00 | 92 | 1020.7 |
| 20260904011005 | 52 | 0 | 3.0 | 5.0 | 0.00 | 0.00 | 0.00 | 92 | 1020.8 |
| 20260904005948 | 52 | 0 | 3.0 | 5.0 | 0.00 | 0.00 | 0.00 | 92 | 1020.7 |
| 20260904005439 | 52 | 0 | 3.0 | 6.0 | 0.00 | 0.00 | 0.00 | 92 | 1020.7 |
| 20260904004930 | 52 | 0 | 4.0 | 6.0 | 0.00 | 0.00 | 0.00 | 92 | 1020.7 |
| 20260904003913 | 52 | 0 | 4.0 | 6.0 | 0.00 | 0.00 | 0.00 | 91 | 1020.8 |
| 20260904003404 | 52 | 0 | 4.0 | 7.0 | 0.00 | 0.00 | 0.00 | 91 | 1020.8 |
| 20260904001837 | 52 | 0 | 3.0 | 5.0 | 0.00 | 0.00 | 0.00 | 91 | 1021.1 |
| 20260904001329 | 52 | 0 | 3.0 | 7.0 | 0.00 | 0.00 | 0.00 | 91 | 1021.1 |
| 20260904000820 | 52 | 0 | 4.0 | 6.0 | 0.00 | 0.00 | 0.00 | 91 | 1021.1 |
| 20260904000311 | 52 | 0 | 3.0 | 6.0 | 0.00 | 0.00 | 0.00 | 91 | 1021.0 |
| 20260903235802 | 52 | 0 | 3.0 | 5.0 | 0.00 | 0.00 | 0.00 | 91 | 1021.1 |
| 20260903235253 | 52 | 0 | 3.0 | 6.0 | 0.00 | 0.00 | 0.00 | 91 | 1021.1 |
| 20260903234744 | 52 | 0 | 4.0 | 8.0 | 0.00 | 0.00 | 0.00 | 91 | 1021.0 |
| 20260903234236 | 52 | 0 | 3.0 | 8.0 | 0.00 | 0.00 | 0.00 | 91 | 1021.1 |
| 20260903233727 | 52 | 0 | 3.0 | 6.0 | 0.00 | 0.00 | 0.00 | 91 | 1020.9 |
| 20260903233218 | 52 | 0 | 3.0 | 7.0 | 0.00 | 0.00 | 0.00 | 91 | 1020.9 |
| 20260903232709 | 52 | 0 | 3.0 | 6.0 | 0.00 | 0.00 | 0.00 | 91 | 1020.9 |
| 20260903231652 | 52 | 0 | 4.0 | 7.0 | 0.00 | 0.00 | 0.00 | 91 | 1020.9 |
| 20260903231143 | 52 | 0 | 3.0 | 6.0 | 0.00 | 0.00 | 0.00 | 90 | 1020.9 |
| 20260903230634 | 52 | 0 | 3.0 | 6.0 | 0.00 | 0.00 | 0.00 | 90 | 1020.9 |
| 20260903230125 | 52 | 0 | 3.0 | 5.0 | 0.00 | 0.00 | 0.00 | 90 | 1021.0 |
| 20260903225616 | 52 | 0 | 4.0 | 6.0 | 0.00 | 0.00 | 0.00 | 90 | 1021.2 |
| 20260903225108 | 52 | 0 | 3.0 | 7.0 | 0.00 | 0.00 | 0.00 | 90 | 1021.2 |
| 20260903224559 | 52 | 0 | 4.0 | 6.0 | 0.00 | 0.00 | 0.00 | 90 | 1021.2 |
| 20260903224050 | 52 | 0 | 3.0 | 7.0 | 0.00 | 0.00 | 0.00 | 90 | 1021.3 |
| 20260903223541 | 52 | 0 | 4.0 | 7.0 | 0.00 | 0.00 | 0.00 | 90 | 1021.1 |
| 20260903223032 | 52 | 0 | 4.0 | 6.0 | 0.00 | 0.00 | 0.00 | 90 | 1021.0 |
| 20260903222523 | 52 | 0 | 4.0 | 8.0 | 0.00 | 0.00 | 0.00 | 90 | 1021.0 |
| 20260903222015 | 52 | 0 | 4.0 | 7.0 | 0.00 | 0.00 | 0.00 | 89 | 1021.1 |
| 20260903221506 | 53 | 0 | 4.0 | 9.0 | 0.00 | 0.00 | 0.00 | 89 | 1021.0 |
| 20260903220957 | 53 | 0 | 4.0 | 6.0 | 0.00 | 0.00 | 0.00 | 89 | 1021.0 |
| 20260903220448 | 53 | 0 | 4.0 | 6.0 | 0.00 | 0.00 | 0.00 | 89 | 1021.0 |
| 20260903215431 | 53 | 0 | 5.0 | 8.0 | 0.00 | 0.00 | 0.00 | 89 | 1021.0 |
| 20260903214922 | 53 | 0 | 4.0 | 6.0 | 0.00 | 0.00 | 0.00 | 89 | 1021.2 |
| 20260903214413 | 53 | 0 | 4.0 | 7.0 | 0.00 | 0.00 | 0.00 | 89 | 1021.0 |
| 20260903213904 | 53 | 0 | 4.0 | 8.0 | 0.00 | 0.00 | 0.00 | 89 | 1021.2 |
| 20260903213355 | 53 | 0 | 4.0 | 7.0 | 0.00 | 0.00 | 0.00 | 88 | 1021.1 |
| 20260903212846 | 53 | 0 | 4.0 | 6.0 | 0.00 | 0.00 | 0.00 | 88 | 1021.1 |
| 20260903211829 | 53 | 0 | 3.0 | 5.0 | 0.00 | 0.00 | 0.00 | 88 | 1021.2 |
| 20260903211320 | 53 | 0 | 3.0 | 5.0 | 0.00 | 0.00 | 0.00 | 88 | 1021.3 |
| 20260903210811 | 53 | 0 | 4.0 | 6.0 | 0.00 | 0.00 | 0.00 | 88 | 1021.4 |
| 20260903210302 | 53 | 0 | 4.0 | 6.0 | 0.00 | 0.00 | 0.00 | 87 | 1021.5 |
| 20260903205754 | 53 | 0 | 4.0 | 8.0 | 0.00 | 0.00 | 0.00 | 87 | 1021.4 |
| 20260903205245 | 53 | 0 | 4.0 | 7.0 | 0.00 | 0.00 | 0.00 | 87 | 1021.7 |
| 20260903204736 | 53 | 0 | 4.0 | 6.0 | 0.00 | 0.00 | 0.00 | 87 | 1021.6 |
| 20260903204227 | 53 | 0 | 4.0 | 6.0 | 0.00 | 0.00 | 0.00 | 87 | 1021.4 |
| 20260903203718 | 53 | 0 | 4.0 | 9.0 | 0.00 | 0.00 | 0.00 | 87 | 1021.5 |
| 20260903202701 | 53 | 0 | 5.0 | 8.0 | 0.00 | 0.00 | 0.00 | 86 | 1021.5 |
| 20260903202152 | 53 | 0 | 4.0 | 7.0 | 0.00 | 0.00 | 0.00 | 86 | 1021.6 |
| 20260903201643 | 53 | 0 | 5.0 | 0.0 | 0.00 | 0.00 | 0.00 | 86 | 1021.6 |
| 20260903201134 | 54 | 0 | 4.0 | 6.0 | 0.00 | 0.00 | 0.00 | 86 | 1021.5 |
| 20260903200625 | 54 | 0 | 4.0 | 6.0 | 0.00 | 0.00 | 0.00 | 85 | 1021.6 |
| 20260903200116 | 54 | 0 | 4.0 | 7.0 | 0.00 | 0.00 | 0.00 | 85 | 1021.6 |
| 20260903195608 | 54 | 0 | 4.0 | 8.0 | 0.00 | 0.00 | 0.00 | 85 | 1021.6 |
| 20260903194550 | 54 | 0 | 4.0 | 12.0 | 0.00 | 0.00 | 0.00 | 84 | 1021.6 |
| 20260903194041 | 54 | 0 | 4.0 | 6.0 | 0.00 | 0.00 | 0.00 | 84 | 1021.6 |
| 20260903193532 | 54 | 0 | 4.0 | 7.0 | 0.00 | 0.00 | 0.00 | 84 | 1021.6 |
| 20260903193023 | 54 | 0 | 6.0 | 0.0 | 0.00 | 0.00 | 0.00 | 84 | 1021.5 |
| 20260903192006 | 55 | 0 | 5.0 | 8.0 | 0.00 | 0.00 | 0.00 | 84 | 1021.5 |
| 20260903191457 | 55 | 0 | 4.0 | 8.0 | 0.00 | 0.00 | 0.00 | 84 | 1021.5 |
| 20260903190948 | 55 | 0 | 4.0 | 6.0 | 0.00 | 0.00 | 0.00 | 83 | 1021.6 |
| 20260903190439 | 55 | 0 | 5.0 | 7.0 | 0.00 | 0.00 | 0.00 | 83 | 1021.6 |
| 20260903185930 | 55 | 0 | 4.0 | 8.0 | 0.00 | 0.00 | 0.00 | 83 | 1021.6 |
| 20260903185421 | 55 | 0 | 4.0 | 7.0 | 0.00 | 0.00 | 0.00 | 83 | 1021.6 |
| 20260903184912 | 55 | 0 | 4.0 | 7.0 | 0.00 | 0.00 | 0.00 | 83 | 1021.5 |
| 20260903184403 | 54 | 0 | 3.0 | 5.0 | 0.00 | 0.00 | 0.00 | 83 | 1021.5 |
| 20260903183855 | 54 | 0 | 4.0 | 7.0 | 0.00 | 0.00 | 0.00 | 83 | 1021.7 |
| 20260903183346 | 54 | 0 | 3.0 | 5.0 | 0.00 | 0.00 | 0.00 | 84 | 1021.6 |
| 20260903182837 | 54 | 0 | 3.0 | 6.0 | 0.00 | 0.00 | 0.00 | 84 | 1021.6 |
| 20260903182328 | 54 | 0 | 3.0 | 6.0 | 0.00 | 0.00 | 0.00 | 84 | 1021.7 |
| 20260903181310 | 54 | 0 | 2.0 | 5.0 | 0.00 | 0.00 | 0.00 | 84 | 1021.7 |
| 20260903180802 | 54 | 0 | 3.0 | 5.0 | 0.00 | 0.00 | 0.00 | 84 | 1021.6 |
| 20260903180253 | 54 | 0 | 3.0 | 6.0 | 0.00 | 0.00 | 0.00 | 84 | 1021.6 |
| 20260903175744 | 54 | 0 | 2.0 | 5.0 | 0.00 | 0.00 | 0.00 | 84 | 1021.6 |
| 20260903175235 | 54 | 0 | 2.0 | 4.0 | 0.00 | 0.00 | 0.00 | 84 | 1021.7 |
| 20260903174726 | 54 | 0 | 3.0 | 5.0 | 0.00 | 0.00 | 0.00 | 84 | 1021.7 |
| 20260903174217 | 54 | 0 | 3.0 | 6.0 | 0.00 | 0.00 | 0.00 | 84 | 1021.6 |
| 20260903173708 | 54 | 0 | 4.0 | 7.0 | 0.00 | 0.00 | 0.00 | 84 | 1021.6 |
| 20260903173200 | 54 | 0 | 3.0 | 6.0 | 0.00 | 0.00 | 0.00 | 84 | 1021.6 |
| 20260903172651 | 54 | 0 | 3.0 | 5.0 | 0.00 | 0.00 | 0.00 | 84 | 1021.6 |
| 20260903172142 | 54 | 0 | 3.0 | 5.0 | 0.00 | 0.00 | 0.00 | 84 | 1021.6 |
| 20260903171633 | 54 | 0 | 3.0 | 6.0 | 0.00 | 0.00 | 0.00 | 83 | 1021.5 |
| 20260903170615 | 55 | 0 | 4.0 | 5.0 | 0.00 | 0.00 | 0.00 | 83 | 1021.5 |
| 20260903170106 | 55 | 0 | 3.0 | 7.0 | 0.00 | 0.00 | 0.00 | 84 | 1021.6 |
| 20260903165557 | 55 | 0 | 3.0 | 6.0 | 0.00 | 0.00 | 0.00 | 84 | 1021.7 |
| 20260903165049 | 55 | 0 | 3.0 | 5.0 | 0.00 | 0.00 | 0.00 | 84 | 1021.7 |
| 20260903164540 | 55 | 0 | 4.0 | 7.0 | 0.00 | 0.00 | 0.00 | 84 | 1021.7 |
| 20260903164031 | 55 | 0 | 4.0 | 5.0 | 0.00 | 0.00 | 0.00 | 84 | 1021.7 |
| 20260903163522 | 55 | 0 | 3.0 | 5.0 | 0.00 | 0.00 | 0.00 | 84 | 1021.7 |
| 20260903163013 | 55 | 0 | 3.0 | 5.0 | 0.00 | 0.00 | 0.00 | 84 | 1021.7 |
| 20260903162504 | 55 | 0 | 3.0 | 5.0 | 0.00 | 0.00 | 0.00 | 83 | 1021.7 |
| 20260903161955 | 55 | 0 | 3.0 | 4.0 | 0.00 | 0.00 | 0.00 | 83 | 1021.8 |
| 20260903161446 | 55 | 0 | 3.0 | 5.0 | 0.00 | 0.00 | 0.00 | 83 | 1021.8 |
| 20260903160938 | 55 | 0 | 3.0 | 4.0 | 0.00 | 0.00 | 0.00 | 83 | 1021.9 |
| 20260903160429 | 55 | 0 | 3.0 | 4.0 | 0.00 | 0.00 | 0.00 | 83 | 1021.9 |
| 20260903155920 | 56 | 0 | 3.0 | 4.0 | 0.00 | 0.00 | 0.00 | 83 | 1021.8 |
| 20260903154902 | 56 | 0 | 3.0 | 6.0 | 0.00 | 0.00 | 0.00 | 83 | 1022.0 |
| 20260903154353 | 56 | 0 | 3.0 | 5.0 | 0.00 | 0.00 | 0.00 | 83 | 1022.0 |
| 20260903153844 | 56 | 0 | 4.0 | 8.0 | 0.00 | 0.00 | 0.00 | 82 | 1022.1 |
| 20260903152826 | 57 | 0 | 4.0 | 6.0 | 0.00 | 0.00 | 0.00 | 82 | 1022.1 |
| 20260903152317 | 57 | 0 | 3.0 | 8.0 | 0.00 | 0.00 | 0.00 | 82 | 1022.1 |
| 20260903151808 | 57 | 0 | 3.0 | 5.0 | 0.00 | 0.00 | 0.00 | 82 | 1022.2 |
| 20260903151259 | 58 | 0 | 3.0 | 6.0 | 0.00 | 0.00 | 0.00 | 82 | 1022.3 |
| 20260903150750 | 58 | 0 | 3.0 | 5.0 | 0.00 | 0.00 | 0.00 | 82 | 1022.3 |
| 20260903145732 | 58 | 0 | 3.0 | 6.0 | 0.00 | 0.00 | 0.00 | 82 | 1022.5 |
| 20260903145223 | 58 | 0 | 4.0 | 7.0 | 0.00 | 0.00 | 0.00 | 82 | 1022.3 |
| 20260903144714 | 58 | 0 | 3.0 | 5.0 | 0.00 | 0.00 | 0.00 | 82 | 1022.3 |
| 20260903144205 | 58 | 0 | 3.0 | 4.0 | 0.00 | 0.00 | 0.00 | 83 | 1022.2 |
| 20260903143657 | 58 | 0 | 3.0 | 4.0 | 0.00 | 0.00 | 0.00 | 83 | 1022.3 |
| 20260903143148 | 58 | 0 | 3.0 | 5.0 | 0.00 | 0.00 | 0.00 | 83 | 1022.3 |
| 20260903142639 | 58 | 0 | 3.0 | 5.0 | 0.00 | 0.00 | 0.00 | 83 | 1022.3 |
| 20260903142130 | 58 | 0 | 3.0 | 5.0 | 0.00 | 0.00 | 0.00 | 83 | 1022.5 |
| 20260903141621 | 58 | 0 | 3.0 | 4.0 | 0.00 | 0.00 | 0.00 | 83 | 1022.6 |
| 20260903141112 | 58 | 0 | 3.0 | 6.0 | 0.00 | 0.00 | 0.00 | 83 | 1022.7 |
| 20260903140603 | 58 | 0 | 3.0 | 6.0 | 0.00 | 0.00 | 0.00 | 83 | 1022.7 |
| 20260903140054 | 58 | 0 | 3.0 | 4.0 | 0.00 | 0.00 | 0.00 | 83 | 1022.6 |
| 20260903135545 | 58 | 0 | 3.0 | 6.0 | 0.00 | 0.00 | 0.00 | 83 | 1022.6 |
| 20260903135036 | 58 | 0 | 3.0 | 6.0 | 0.00 | 0.00 | 0.00 | 83 | 1022.6 |
| 20260903134527 | 58 | 0 | 2.0 | 4.0 | 0.00 | 0.00 | 0.00 | 83 | 1022.6 |
| 20260903134018 | 58 | 0 | 3.0 | 5.0 | 0.00 | 0.00 | 0.00 | 83 | 1022.8 |
| 20260903133509 | 57 | 0 | 2.0 | 5.0 | 0.00 | 0.00 | 0.00 | 83 | 1022.8 |
| 20260903133000 | 58 | 0 | 3.0 | 6.0 | 0.00 | 0.00 | 0.00 | 83 | 1022.6 |
| 20260903131942 | 58 | 0 | 3.0 | 5.0 | 0.00 | 0.00 | 0.00 | 83 | 1022.4 |
| 20260903131433 | 58 | 0 | 3.0 | 4.0 | 0.00 | 0.00 | 0.00 | 84 | 1022.6 |
| 20260903130924 | 58 | 0 | 3.0 | 5.0 | 0.00 | 0.00 | 0.00 | 84 | 1022.4 |
| 20260903130415 | 57 | 0 | 3.0 | 5.0 | 0.00 | 0.00 | 0.00 | 85 | 1022.5 |
| 20260903125906 | 57 | 0 | 3.0 | 5.0 | 0.00 | 0.00 | 0.00 | 85 | 1022.7 |
| 20260903125357 | 56 | 0 | 2.0 | 4.0 | 0.00 | 0.00 | 0.00 | 85 | 1022.7 |
| 20260903124848 | 56 | 0 | 3.0 | 5.0 | 0.00 | 0.00 | 0.00 | 84 | 1022.6 |
| 20260903124339 | 56 | 0 | 3.0 | 4.0 | 0.00 | 0.00 | 0.00 | 84 | 1022.5 |
| 20260903123830 | 56 | 0 | 3.0 | 5.0 | 0.00 | 0.00 | 0.00 | 84 | 1022.5 |
| 20260903123322 | 57 | 0 | 3.0 | 7.0 | 0.00 | 0.00 | 0.00 | 84 | 1022.5 |
| 20260903122813 | 57 | 0 | 2.0 | 5.0 | 0.00 | 0.00 | 0.00 | 85 | 1022.7 |
| 20260903122305 | 57 | 0 | 3.0 | 5.0 | 0.00 | 0.00 | 0.00 | 85 | 1022.7 |
| 20260903121755 | 56 | 0 | 2.0 | 4.0 | 0.00 | 0.00 | 0.00 | 85 | 1022.8 |
| 20260903121246 | 56 | 0 | 3.0 | 4.0 | 0.00 | 0.00 | 0.00 | 85 | 1022.9 |
| 20260903120737 | 56 | 0 | 3.0 | 6.0 | 0.00 | 0.00 | 0.00 | 85 | 1022.8 |
| 20260903115719 | 56 | 0 | 2.0 | 4.0 | 0.00 | 0.00 | 0.00 | 85 | 1022.8 |
| 20260903115210 | 56 | 0 | 2.0 | 4.0 | 0.00 | 0.00 | 0.00 | 85 | 1022.8 |
| 20260903114701 | 56 | 0 | 2.0 | 4.0 | 0.00 | 0.00 | 0.00 | 85 | 1023.0 |
| 20260903114152 | 56 | 0 | 2.0 | 5.0 | 0.00 | 0.00 | 0.00 | 84 | 1023.1 |
| 20260903113643 | 56 | 0 | 3.0 | 5.0 | 0.00 | 0.00 | 0.00 | 84 | 1023.1 |
| 20260903112625 | 57 | 0 | 2.0 | 4.0 | 0.00 | 0.00 | 0.00 | 85 | 1023.2 |
| 20260903111608 | 57 | 0 | 3.0 | 4.0 | 0.00 | 0.00 | 0.00 | 85 | 1023.1 |
| 20260903110550 | 57 | 0 | 3.0 | 4.0 | 0.00 | 0.00 | 0.00 | 85 | 1023.2 |
| 20260903110041 | 57 | 0 | 3.0 | 5.0 | 0.00 | 0.00 | 0.00 | 85 | 1023.3 |
| 20260903105532 | 57 | 0 | 2.0 | 3.0 | 0.00 | 0.00 | 0.00 | 86 | 1023.2 |
| 20260903105023 | 56 | 0 | 2.0 | 4.0 | 0.00 | 0.00 | 0.00 | 86 | 1023.3 |
| 20260903104514 | 56 | 0 | 3.0 | 5.0 | 0.00 | 0.00 | 0.00 | 86 | 1023.4 |
| 20260903104005 | 56 | 0 | 3.0 | 5.0 | 0.00 | 0.00 | 0.00 | 85 | 1023.4 |
| 20260903102947 | 56 | 0 | 2.0 | 3.0 | 0.00 | 0.00 | 0.00 | 85 | 1023.6 |
| 20260903102438 | 56 | 0 | 2.0 | 3.0 | 0.00 | 0.00 | 0.00 | 86 | 1023.5 |
| 20260903101420 | 56 | 0 | 2.0 | 3.0 | 0.00 | 0.00 | 0.00 | 86 | 1023.4 |
| 20260903100911 | 56 | 0 | 2.0 | 4.0 | 0.00 | 0.00 | 0.00 | 86 | 1023.5 |
| 20260903100402 | 56 | 0 | 2.0 | 3.0 | 0.00 | 0.00 | 0.00 | 85 | 1023.6 |
| 20260903095853 | 57 | 0 | 2.0 | 4.0 | 0.00 | 0.00 | 0.00 | 85 | 1023.5 |